This demonstration page uses our WeatherBlox Daily Observations layout. Learn more.

Left ArrowRight Arrow

34.74481, -87.66753

Hourly Observations for June 9, 2020

Temp ( °F °C ) Dew Point ( °F °C ) Humidity (%) Winds ( mph kmh ) Pressure ( in mb ) Visibility ( mi km ) Precip ( " mm )
12:19 am 00:19 Cloudy 79 26.1 73 22.8 82 82 SSE 14 22 29.78 1008 10 16 0.00 0.00
12:53 am 00:53 Cloudy 79 26.1 73 22.8 82 82 SSE 12 19 29.78 1008 10 16 0.00 0.00
1:53 am 01:53 Cloudy with Light Rain 78 25.6 73 22.8 85 85 SSE 13 20 29.76 1008 8 13 0.00 0.00
1:59 am 01:59 Cloudy with Heavy Rain 77 25 73 22.8 88 88 SSE 9 15 29.77 1008 3 4 0.08 2.03
2:07 am 02:07 Cloudy with Light Rain 77 25 74 23.3 90 90 S 10 17 29.77 1008 4 6 0.09 2.29
2:33 am 02:33 Cloudy with Heavy Rain 77 25 74 23.3 90 90 SSE 12 19 29.76 1008 3 5 0.14 3.56
2:36 am 02:36 Cloudy with Heavy Rain 77 25 74 23.3 90 90 SSE 14 22 29.76 1008 3 4 0.17 4.32
2:38 am 02:38 Cloudy with Heavy Rain 76 24.4 74 23.3 94 94 SSE 16 26 29.76 1008 2 3 0.28 7.11
2:53 am 02:53 Cloudy with Heavy Rain 76 24.4 74 23.3 94 94 SSE 6 9 29.76 1008 3 4 0.44 11.18
3:01 am 03:01 Cloudy with Heavy Rain 76 24.4 74 23.3 94 94 SSW 7 11 29.76 1008 2 3 0.09 2.29
3:16 am 03:16 Cloudy with Light Rain 76 24.4 74 23.3 94 94 SSE 9 15 29.76 1008 8 13 0.12 3.05
3:31 am 03:31 Cloudy with Rain 76 24.4 74 23.3 94 94 S 7 11 29.76 1008 2 3 0.24 6.10
3:35 am 03:35 Cloudy with Light Rain 76 24.4 73 22.8 91 91 S 8 13 29.76 1008 3 5 0.24 6.10
3:51 am 03:51 Cloudy 77 25 73 23 89 89 S 10 17 29.76 1008 10 16 0.25 6.35
3:53 am 03:53 Cloudy 77 25 73 22.8 88 88 S 9 15 29.76 1008 10 16 0.25 6.35
4:01 am 04:01 Cloudy 77 25 73 22.8 88 88 SSE 8 13 29.77 1008 10 16 0.00 0.00
4:53 am 04:53 Cloudy 77 25 73 22.8 88 88 SSE 10 17 29.77 1008 10 16 0.00 0.00
5:53 am 05:53 Cloudy 77 25 73 22.8 88 88 S 8 13 29.79 1009 10 16 0.07 1.78
6:53 am 06:53 Mostly Cloudy 77 25 73 22.8 88 88 S 13 20 29.80 1009 10 16 0.00 0.00
7:53 am 07:53 Cloudy 78 25.6 73 22.8 85 85 S 10 17 29.83 1010 10 16 0.00 0.00
8:53 am 08:53 Cloudy 81 27.2 73 22.8 77 77 S 18 30 29.82 1010 10 16 0.00 0.00
9:53 am 09:53 Mostly Cloudy 83 28.3 73 22.8 72 72 SSW 12 19 29.83 1010 10 16 0.00 0.00
10:20 am 10:20 Cloudy 83 28.3 72 22.2 70 70 SSW 20 31 29.82 1010 10 16 0.00 0.00
10:50 am 10:50 Cloudy 84 29 72 22 66 66 SW 16 26 29.83 1010 10 16 0.00 0.00
10:53 am 10:53 Mostly Cloudy 84 28.9 72 22.2 67 67 SSW 14 22 29.83 1010 10 16 0.00 0.00
11:18 am 11:18 Cloudy 84 28.9 73 22.8 70 70 SW 14 22 29.83 1010 10 16 0.00 0.00
11:53 am 11:53 Cloudy 85 29.4 72 22.2 65 65 SW 21 33 29.84 1010 10 16 0.00 0.00
12:36 pm 12:36 Cloudy 86 30 73 22.8 65 65 WSW 18 30 29.83 1010 10 16 0.00 0.00
12:53 pm 12:53 Mostly Cloudy 86 30 73 22.8 65 65 SW 18 30 29.83 1010 10 16 0.00 0.00
1:53 pm 13:53 Mostly Cloudy 89 31.7 74 23.3 61 61 SW 12 19 29.82 1010 10 16 0.00 0.00
2:53 pm 14:53 Mostly Sunny 89 31.7 73 22.8 59 59 WSW 14 22 29.80 1009 10 16 0.00 0.00
3:53 pm 15:53 Partly Cloudy 89 31.7 73 22.8 59 59 SW 10 17 29.78 1009 10 16 0.00 0.00
4:53 pm 16:53 Mostly Sunny 90 32.2 73 22.8 58 58 SW 15 24 29.77 1008 10 16 0.00 0.00
5:53 pm 17:53 Mostly Sunny 89 31.7 73 22.8 59 59 S 13 20 29.78 1008 10 16 0.00 0.00
6:53 pm 18:53 Sunny 87 30.6 74 23.3 65 65 S 13 20 29.78 1009 10 16 0.00 0.00
7:53 pm 19:53 Sunny 85 29.4 74 23.3 70 70 S 6 9 29.80 1009 10 16 0.00 0.00
8:53 pm 20:53 Mostly Clear 82 27.8 74 23.3 77 77 S 9 15 29.83 1010 10 16 0.00 0.00
9:53 pm 21:53 Clear 80 26.7 74 23.3 82 82 SSE 9 15 29.85 1011 10 16 0.00 0.00
10:51 pm 22:51 Mostly Cloudy 79 26 73 23 84 84 S 9 15 29.86 1011 10 16 0.00 0.00
10:53 pm 22:53 Mostly Cloudy 79 26.1 74 23.3 85 85 S 9 15 29.85 1011 10 16 0.00 0.00
11:53 pm 23:53 Mostly Cloudy 80 26.7 74 23.3 82 82 S 13 20 29.85 1011 10 16 0.00 0.00

Powered by AerisWeather